Ann Arbor, MI

3:24 PM EDT on July 22, 2017 (GMT -0400)
Ann Arbor Municipal

Weather History for KARB - December, 2012

Change the Weather History Date:

Friday, December 28, 2012

  Actual Average Record
Temperature  
Mean Temperature 16 °F -  
Max Temperature 28 °F 30 °F 55 °F (2008)
Min Temperature 3 °F 15 °F 0 °F (2000)
Degree Days  
Heating Degree Days 50    
Moisture  
Dew Point 16 °F    
Average Humidity 83    
Maximum Humidity 92    
Minimum Humidity 74    
Precipitation  
Precipitation 0.00 in - - ()
Sea Level Pressure  
Sea Level Pressure 30.10 in    
Wind  
Wind Speed 1 mph (East)    
Max Wind Speed 6 mph    
Max Gust Speed -    
Visibility 8 miles    
Events Snow    
Averages and records for this station are not official NWS values.
T = Trace of Precipitation, MM = Missing Value Source: NWS Daily Summary

Daily Weather History Graph

Daily Weather History Graph

Search for Another Location

Airport or City:

Trip Planner

Search our weather history database for the weather conditions in past years. The results will help you decide how hot, cold, wet, or windy it might be!

Date:

Astronomy

Dec. 28, 2012 Rise Set
Actual Time 8:03 AM EST 5:10 PM EST
Civil Twilight 7:31 AM EST 5:42 PM EST
Nautical Twilight 6:56 AM EST 6:17 PM EST
Astronomical Twilight 6:21 AM EST 6:51 PM EST
Moon 5:47 PM EST (12/28) 7:55 AM EST (12/28)
Length of Visible Light 10h 11m
Length of Day
9h 07m
Full, 100% of the Moon is Illuminated
Dec 28
Full
Jan 4
Last Quarter
Jan 11
New
Jan 18
First Quarter
Jan 26
Full

Hourly Weather History & Observations

Time (EST) Temp. Windchill Dew Point Humidity Pressure Visibility Wind Dir Wind Speed Gust Speed Precip Events Conditions
12:04 AM 5.0 °F - 3.2 °F 92% 30.13 in 2.5 mi Calm Calm - N/A   Clear
12:11 AM 6.8 °F - 1.4 °F 79% 30.13 in 10.0 mi Calm Calm - N/A   Clear
12:53 AM 5.0 °F - 1.9 °F 87% 30.16 in 9.0 mi Calm Calm - N/A   Clear
1:53 AM 3.9 °F - -0.9 °F 80% 30.17 in 10.0 mi Calm Calm - N/A   Clear
2:53 AM 3.9 °F - 1.9 °F 91% 30.18 in 10.0 mi Calm Calm - N/A   Clear
3:53 AM 3.0 °F - -0.0 °F 87% 30.18 in 10.0 mi Calm Calm - N/A   Clear
4:53 AM 6.1 °F - 3.9 °F 91% 30.18 in 10.0 mi Calm Calm - N/A   Mostly Cloudy
5:53 AM 10.0 °F - 8.1 °F 92% 30.16 in 10.0 mi Calm Calm - N/A   Overcast
7:22 AM 10.4 °F - 8.6 °F 92% 30.12 in 10.0 mi Calm Calm - N/A   Overcast
7:34 AM 12.2 °F - 10.4 °F 92% 30.12 in 10.0 mi Calm Calm - N/A   Overcast
7:53 AM 12.9 °F - 10.9 °F 92% 30.17 in 10.0 mi Calm Calm - N/A   Overcast
8:53 AM 16.0 °F - 14.0 °F 92% 30.17 in 8.0 mi Calm Calm - N/A   Overcast
9:53 AM 19.9 °F - 18.0 °F 92% 30.18 in 8.0 mi Calm Calm - N/A   Overcast
10:53 AM 23.0 °F - 19.0 °F 85% 30.20 in 10.0 mi Calm Calm - N/A   Overcast
11:24 AM 24.8 °F 20.5 °F 17.6 °F 74% 30.16 in 3.0 mi SSW 3.5 mph - 0.00 in Snow Light Snow
11:33 AM 24.8 °F 19.1 °F 17.6 °F 74% 30.15 in 3.0 mi SSW 4.6 mph - 0.00 in Snow Light Snow
11:53 AM 24.1 °F 19.7 °F 19.9 °F 84% 30.19 in 3.0 mi SW 3.5 mph - 0.00 in Snow Light Snow
12:00 PM 24.8 °F 19.1 °F 19.4 °F 80% 30.14 in 1.0 mi SW 4.6 mph - 0.00 in Snow Light Snow
12:41 PM 26.6 °F - 21.2 °F 80% 30.10 in 1.5 mi Calm Calm - 0.00 in Snow Light Snow
12:53 PM 27.0 °F - 21.9 °F 81% 30.13 in 2.0 mi Calm Calm - 0.00 in Snow Light Snow
1:05 PM 26.6 °F - 21.2 °F 80% 30.08 in 3.0 mi Calm Calm - 0.00 in Snow Light Snow
1:27 PM 28.4 °F - 23.0 °F 80% 30.07 in 6.0 mi Calm Calm - 0.00 in Snow Light Snow
1:53 PM 28.0 °F 24.2 °F 23.0 °F 81% 30.09 in 10.0 mi ENE 3.5 mph - 0.00 in   Mostly Cloudy
2:53 PM 28.0 °F - 23.0 °F 81% 30.07 in 10.0 mi Calm Calm - N/A   Overcast
3:10 PM 28.4 °F - 23.0 °F 80% 30.03 in 10.0 mi Calm Calm - N/A   Overcast
3:53 PM 28.0 °F 22.8 °F 23.0 °F 81% 30.08 in 10.0 mi South 4.6 mph - N/A   Overcast
4:53 PM 28.0 °F - 23.0 °F 81% 30.06 in 10.0 mi Calm Calm - N/A   Overcast
5:53 PM 27.0 °F 23.0 °F 21.0 °F 78% 30.05 in 10.0 mi East 3.5 mph - N/A   Overcast
6:53 PM 25.0 °F 20.7 °F 19.0 °F 78% 30.05 in 10.0 mi ESE 3.5 mph - N/A   Mostly Cloudy
7:53 PM 25.0 °F - 19.0 °F 78% 30.04 in 10.0 mi Calm Calm - N/A   Scattered Clouds
8:44 PM 26.6 °F 22.6 °F 19.4 °F 74% 29.98 in 10.0 mi NE 3.5 mph - N/A   Overcast
8:53 PM 26.1 °F 21.9 °F 19.9 °F 78% 30.02 in 10.0 mi NE 3.5 mph - N/A   Overcast
9:21 PM 26.6 °F 22.6 °F 21.2 °F 80% 29.97 in 10.0 mi ENE 3.5 mph - N/A   Overcast
9:30 PM 26.6 °F 22.6 °F 21.2 °F 80% 29.96 in 10.0 mi ENE 3.5 mph - N/A   Overcast
9:53 PM 26.1 °F 21.9 °F 21.0 °F 81% 30.01 in 10.0 mi East 3.5 mph - N/A   Overcast
10:53 PM 26.1 °F 21.9 °F 21.9 °F 84% 29.98 in 9.0 mi ENE 3.5 mph - N/A   Overcast
11:53 PM 26.1 °F 19.4 °F 21.9 °F 84% 29.96 in 8.0 mi ENE 5.8 mph - N/A   Overcast